Tracking 31027 objects as of 19-Jul-2025
HD Live streaming from Space Station
objects crossing your sky now

SL-19 DEB

Track SL-19 DEB now!
10-day predictions


NORAD ID: 23493
Int'l Code: 1994-085R
Perigee: 1,880.1 km
Apogee: 2,135.7 km
Inclination: 64.9 °
Period: 127.2 minutes
Semi major axis: 8378 km
RCS: 0.0464 m2 (small)
Launch date: December 26, 1994
Source: Commonwealth of Independent States (former USSR) (CIS)
Launch site: TYURATAM MISSILE AND SPACE COMPLEX (TTMTR)

Note: This is SATELLITE DEBRIS
Your satellite tracking list
STARLINK-4010
Track 1 satellite(s)




NASA's NSSDC Master Catalog

Two Line Element Set (TLE):
1 23493U 94085R   25198.64903794  .00000320  00000-0  98098-2 0  9995
2 23493  64.9397  59.3078 0152497 243.6553 147.7587 11.31933998262869
Source of the keplerian elements: AFSPC